Jefferson, NC

7:22 PM EDT on September 16, 2019 (GMT -0400)
Ashe County

Weather History for KGEV - May, 2019

Change the Weather History Date:

Sunday, May 5, 2019

  Actual Average Record
Temperature  
Mean Temperature 59 °F -  
Max Temperature 64 °F 68 °F 81 °F (1969)
Min Temperature 54 °F 41 °F 28 °F (1986)
Degree Days  
Heating Degree Days 6    
Growing Degree Days 9 (Base 50)    
Moisture  
Dew Point 55 °F    
Average Humidity 88    
Maximum Humidity 100    
Minimum Humidity 71    
Precipitation  
Precipitation 0.24 in - - ()
Sea Level Pressure  
Sea Level Pressure 29.82 in    
Wind  
Wind Speed 4 mph (NW)    
Max Wind Speed 17 mph    
Max Gust Speed 29 mph    
Visibility 8 miles    
Events Fog , Rain    
Averages and records for this station are not official NWS values.
T = Trace of Precipitation, MM = Missing Value Source: NWS Daily Summary

Daily Weather History Graph

Daily Weather History Graph

Search for Another Location

Airport or City:

Astronomy

May. 05, 2019 Rise Set
Actual Time 6:28 AM EDT 8:16 PM EDT
Civil Twilight 6:00 AM EDT 8:44 PM EDT
Nautical Twilight 5:26 AM EDT 9:18 PM EDT
Astronomical Twilight 4:50 AM EDT 9:54 PM EDT
Moon 7:10 AM EDT (5/5) 9:08 PM EDT (5/5)
Length of Visible Light 14h 44m
Length of Day
13h 48m
New Moon, 1% of the Moon is Illuminated
May 5
New Moon
May 11
First Quarter
May 18
Full
May 26
Last Quarter
Jun 3
New

Hourly Weather History & Observations

Time (EDT) Temp. Dew Point Humidity Pressure Visibility Wind Dir Wind Speed Gust Speed Precip Events Conditions
12:05 AM 57.7 °F 57.6 °F 99% 29.87 in 5.0 mi Calm Calm - N/A   Overcast
12:25 AM 58.1 °F 58.1 °F 100% 29.87 in 7.0 mi Calm Calm - N/A   Overcast
12:45 AM 58.3 °F 58.3 °F 100% 29.86 in 5.0 mi Calm Calm - N/A   Overcast
1:05 AM 58.3 °F 58.3 °F 100% 29.86 in 2.5 mi Calm Calm - N/A   Drizzle
1:25 AM 58.1 °F 58.1 °F 100% 29.86 in 0.8 mi SSE 3.5 mph - N/A   Overcast
1:45 AM 58.1 °F 58.1 °F 100% 29.86 in 0.5 mi Calm Calm - N/A Fog Fog
2:05 AM 58.1 °F 58.1 °F 100% 29.85 in 0.5 mi SE 3.5 mph - N/A Fog Fog
2:25 AM 58.1 °F 58.1 °F 100% 29.84 in 0.5 mi Calm Calm - N/A Fog Fog
2:45 AM 57.7 °F 57.7 °F 100% 29.84 in 0.8 mi Calm Calm - N/A Rain Light Rain
3:05 AM 57.6 °F 57.6 °F 100% 29.83 in 3.0 mi Calm Calm - 0.01 in Rain Rain
3:25 AM 57.2 °F 57.2 °F 100% 29.81 in 10.0 mi Calm Calm - 0.02 in Rain Light Rain
3:45 AM 57.2 °F 54.5 °F 91% 29.80 in 10.0 mi Calm Calm - 0.02 in Rain Light Rain
4:05 AM 57.0 °F 51.8 °F 83% 29.80 in 10.0 mi Calm Calm - N/A   Light Drizzle
4:25 AM 57.2 °F 55.4 °F 94% 29.79 in 10.0 mi Calm Calm - N/A   Overcast
4:45 AM 56.7 °F 55.2 °F 95% 29.78 in 10.0 mi Calm Calm - N/A   Overcast
5:05 AM 57.2 °F 54.3 °F 90% 29.78 in 10.0 mi Calm Calm - N/A Rain Rain
5:25 AM 57.4 °F 54.9 °F 91% 29.78 in 7.0 mi Calm Calm - 0.01 in   Drizzle
5:45 AM 55.4 °F 54.7 °F 97% 29.77 in 7.0 mi Calm Calm - 0.05 in Rain Light Rain
6:05 AM 55.0 °F 54.7 °F 99% 29.77 in 7.0 mi NW 3.5 mph - 0.01 in Rain Light Rain
6:25 AM 55.8 °F 55.4 °F 99% 29.77 in 5.0 mi NNW 3.5 mph - 0.03 in Rain Heavy Rain
6:45 AM 55.8 °F 55.8 °F 100% 29.77 in 4.0 mi Calm Calm - 0.05 in   Heavy Drizzle
7:05 AM 55.9 °F 55.9 °F 100% 29.77 in 3.0 mi Calm Calm - 0.02 in Rain Light Rain
7:25 AM 55.8 °F 55.8 °F 100% 29.77 in 2.0 mi Calm Calm - 0.04 in Rain Rain
7:45 AM 55.9 °F 55.9 °F 100% 29.78 in 0.5 mi Calm Calm - 0.04 in   Drizzle
8:05 AM 56.3 °F 56.3 °F 100% 29.77 in 2.0 mi Calm Calm - N/A   Light Drizzle
8:25 AM 56.3 °F 56.3 °F 100% 29.78 in 5.0 mi Calm Calm - 0.01 in   Overcast
8:45 AM 57.6 °F 57.2 °F 99% 29.77 in 10.0 mi Calm Calm - 0.01 in   Overcast
9:05 AM 58.5 °F 57.4 °F 96% 29.78 in 10.0 mi Calm Calm - N/A   Mostly Cloudy
9:25 AM 59.0 °F 57.7 °F 96% 29.78 in 10.0 mi Calm Calm - N/A   Overcast
9:45 AM 60.1 °F 57.0 °F 90% 29.78 in 10.0 mi WNW 5.8 mph - N/A   Overcast
10:05 AM 59.2 °F 56.5 °F 91% 29.78 in 10.0 mi WNW 5.8 mph - N/A   Light Drizzle
10:25 AM 58.6 °F 56.3 °F 92% 29.79 in 7.0 mi WNW 9.2 mph - 0.02 in Rain Rain
10:45 AM 59.0 °F 56.3 °F 91% 29.78 in 10.0 mi Calm Calm - 0.04 in Rain Rain
11:05 AM 59.2 °F 56.3 °F 90% 29.79 in 10.0 mi WNW 4.6 mph - N/A Rain Light Rain
11:25 AM 59.4 °F 56.5 °F 90% 29.78 in 10.0 mi WNW 6.9 mph - 0.01 in Rain Light Rain
11:45 AM 60.1 °F 56.7 °F 88% 29.78 in 10.0 mi WNW 4.6 mph - 0.02 in   Overcast
12:05 PM 60.8 °F 57.4 °F 88% 29.79 in 10.0 mi West 5.8 mph - N/A   Overcast
12:25 PM 61.7 °F 57.6 °F 86% 29.78 in 10.0 mi NNW 5.8 mph - N/A   Overcast
12:45 PM 61.7 °F 57.0 °F 85% 29.78 in 10.0 mi NW 6.9 mph - N/A   Overcast
1:05 PM 63.5 °F 57.2 °F 80% 29.79 in 10.0 mi WNW 8.1 mph - N/A   Overcast
1:25 PM 61.5 °F 58.5 °F 90% 29.79 in 10.0 mi NW 9.2 mph - N/A   Overcast
1:45 PM 60.8 °F 56.7 °F 86% 29.79 in 7.0 mi NW 11.5 mph 17.3 mph N/A   Light Drizzle
2:05 PM 63.3 °F 57.7 °F 82% 29.79 in 10.0 mi NW 10.4 mph 16.1 mph N/A   Mostly Cloudy
2:25 PM 64.4 °F 55.8 °F 73% 29.79 in 10.0 mi NW 12.7 mph 17.3 mph N/A   Mostly Cloudy
2:45 PM 63.5 °F 54.9 °F 73% 29.80 in 10.0 mi NW 10.4 mph - N/A   Overcast
3:05 PM 63.9 °F 54.9 °F 72% 29.80 in 10.0 mi NW 10.4 mph - N/A   Overcast
3:25 PM 63.3 °F 53.6 °F 71% 29.80 in 10.0 mi NW 12.7 mph 16.1 mph N/A   Overcast
3:45 PM 62.8 °F 53.8 °F 72% 29.80 in 10.0 mi WNW 15.0 mph 19.6 mph 0.01 in   Overcast
4:05 PM 63.5 °F 54.5 °F 72% 29.81 in 10.0 mi NW 11.5 mph 16.1 mph N/A   Mostly Cloudy
4:25 PM 63.1 °F 54.3 °F 73% 29.80 in 10.0 mi NW 10.4 mph 18.4 mph N/A   Mostly Cloudy
4:45 PM 62.4 °F 54.1 °F 74% 29.80 in 10.0 mi NW 12.7 mph 21.9 mph N/A   Mostly Cloudy
5:05 PM 62.1 °F 53.8 °F 74% 29.81 in 10.0 mi NW 11.5 mph 20.7 mph N/A   Scattered Clouds
5:25 PM 62.2 °F 53.4 °F 73% 29.82 in 10.0 mi NW 4.6 mph 21.9 mph N/A   Scattered Clouds
5:45 PM 62.1 °F 53.6 °F 74% 29.82 in 10.0 mi NNW 12.7 mph 18.4 mph N/A   Scattered Clouds
6:05 PM 61.7 °F 53.4 °F 74% 29.84 in 10.0 mi NW 11.5 mph 19.6 mph N/A   Mostly Cloudy
6:25 PM 60.8 °F 52.9 °F 75% 29.84 in 10.0 mi NW 9.2 mph 18.4 mph N/A   Scattered Clouds
6:45 PM 60.8 °F 53.1 °F 76% 29.84 in 10.0 mi NW 10.4 mph 18.4 mph N/A   Scattered Clouds
7:05 PM 60.4 °F 52.3 °F 75% 29.85 in 10.0 mi NW 13.8 mph 20.7 mph N/A   Clear
7:25 PM 59.7 °F 52.2 °F 76% 29.85 in 10.0 mi NW 12.7 mph 27.6 mph N/A   Clear
7:45 PM 58.8 °F 51.8 °F 77% 29.85 in 10.0 mi NW 10.4 mph 28.8 mph N/A   Clear
8:05 PM 57.9 °F 51.4 °F 79% 29.86 in 10.0 mi NW 16.1 mph 21.9 mph N/A   Clear
8:25 PM 57.2 °F 51.1 °F 80% 29.86 in 10.0 mi NW 17.3 mph 24.2 mph N/A   Clear
8:45 PM 56.8 °F 50.9 °F 80% 29.88 in 10.0 mi NW 10.4 mph 23.0 mph N/A   Clear
9:05 PM 56.3 °F 51.1 °F 83% 29.89 in 10.0 mi NNW 9.2 mph - N/A   Clear
9:25 PM 56.1 °F 51.1 °F 83% 29.89 in 10.0 mi NW 10.4 mph 16.1 mph N/A   Clear
9:45 PM 56.1 °F 50.9 °F 83% 29.90 in 10.0 mi NNW 8.1 mph 16.1 mph N/A   Clear
10:05 PM 55.6 °F 50.9 °F 84% 29.91 in 10.0 mi NNW 6.9 mph - N/A   Clear
10:25 PM 55.4 °F 50.5 °F 84% 29.93 in 10.0 mi NNW 3.5 mph - N/A   Clear
10:45 PM 54.9 °F 50.4 °F 85% 29.93 in 10.0 mi NNW 6.9 mph - N/A   Clear
11:05 PM 54.5 °F 50.4 °F 86% 29.94 in 10.0 mi North 5.8 mph - N/A   Clear
11:25 PM 54.1 °F 50.4 °F 87% 29.93 in 10.0 mi NW 8.1 mph - N/A   Clear
11:45 PM 54.3 °F 50.2 °F 86% 29.95 in 10.0 mi NNW 5.8 mph - N/A   Clear